Regional Weather Roundup
Issued by NWS

Home | Current Version | Previous Version | Graphics & Text | Print | Product List | Glossary On
Versions: 1 2 3 4 5 6 7 8 9 10 11 12 13 14 15 16 17 18 19 20 21 22 23 24 25 26 27 28 29 30 31 32 33 34 35 36 37 38 39 40 41 42 43 44 45 46 47 48 49 50
000
ASUS43 KLOT 201206
RWRIL

ILLINOIS REGIONAL WEATHER ROUNDUP
NATIONAL WEATHER SERVICE CHICAGO/ROMEOVILLE IL
700 AM CDT WED AUG 20 2014

NOTE: "FAIR" INDICATES FEW OR NO CLOUDS BELOW 12,000 FEET WITH NO
SIGNIFICANT WEATHER AND/OR OBSTRUCTIONS TO VISIBILITY.

* THESE STATIONS ARE NOT UNDER NWS QUALITY CONTROL. THEY ALSO MAY NOT
  REPORT WEATHER SUCH AS PRECIPITATION OR FOG.

ILZ001-002-007-009-015-016-024-201300-
NORTHWEST ILLINOIS

CITY           SKY/WX    TMP DP  RH WIND       PRES   REMARKS
MOLINE         CLEAR     63  60  90 CALM      29.85S
6HR MIN TEMP:  60; 6HR MAX TEMP:  68;

STERLING*      CLEAR     63  61  94 W3        29.86R
SAVANNA*       CLEAR     64  62  94 SE3       29.85R FOG
$$

ILZ003-004-008-010-011-017-018-201300-
NORTH CENTRAL ILLINOIS

CITY           SKY/WX    TMP DP  RH WIND       PRES   REMARKS
ROCKFORD       PTCLDY    63  60  90 CALM      29.86S
6HR MIN TEMP:  62; 6HR MAX TEMP:  68;

FREEPORT*      CLEAR     60  58  94 CALM      29.87S
ROCHELLE*      CLEAR     59  57  96 CALM      29.86S FOG
DE KALB*       CLEAR     64  61  91 W3        29.87R
PERU*          CLEAR     64  62  95 W3        29.87R FOG
$$

ILZ005-006-012>014-019>023-201300-
NORTHEAST ILLINOIS

CITY           SKY/WX    TMP DP  RH WIND       PRES   REMARKS
CHICAGO-OHARE  PTCLDY    68  61  78 W6        29.84R
6HR MIN TEMP:  66; 6HR MAX TEMP:  70;

CHICAGO-MIDWAY PTCLDY    69  64  84 W5        29.84R
6HR MIN TEMP:  68; 6HR MAX TEMP:  74;

AURORA         CLEAR     61  58  90 CALM      29.85R FOG
6HR MIN TEMP:  59; 6HR MAX TEMP:  65;

LANSING*       CLEAR     64  63  97 SW3       29.86R FOG
JOLIET*        CLEAR     62  61  94 CALM      29.86S
WAUKEGAN       CLEAR     64  63  96 CALM      29.83R
6HR MIN TEMP:  61; 6HR MAX TEMP:  68;

DUPAGE AIRPORT PTCLDY    65  61  87 CALM      29.85R
6HR MIN TEMP:  62; 6HR MAX TEMP:  67;

KANKAKEE*      CLEAR     62  61  99 CALM      29.87R FOG
WHEELING       CLEAR     68  63  84 SW3       29.86R
6HR MIN TEMP:  67; 6HR MAX TEMP:  70;

MORRIS*        CLEAR     64  64 100 SW3       29.85S FOG
ROMEOVILLE*    CLEAR     64  64 100 CALM      29.85S
NORTHERLY ISL    N/A     71  62  73 W6          N/A
$$

LMZ740>746-201300-
SOUTHERN LAKE MICHIGAN

STATION/POSITION SKY/WX   TEMP    WIND        PRES    VSBY  WAVE
                          AIR SEA DIR/SP/G                  HT/PER
                          (F)     (DEG/KT/KT) (MB)    (MI)  (FT/S)
SOUTHERN BUOY              67 66  270/  4/  6 1009.9R         1
WAUKEGAN HARBOR            67     250/  3/  6   N/A
HARRISON CRIB              70     280/ 10/ 11   N/A
BURNHAM HARBOR             71     240/  5/  8   N/A
CALUMET HARBOR             69     220/  2/  4 1009.4R
BURNS HARBOR               71     230/  4/  5   N/A
MICHIGAN CITY              69     190/  5/  6   N/A
MICHIGAN CITY 6N           71 70  240/  4/  6   N/A           1/ 2
ST. JOSEPH                 70 70  270/  4/  6   N/A           1/ 3
$$

ILZ025>027-034>036-040-047-049-050-058-095>099-201300-
WEST-CENTRAL ILLINOIS

CITY           SKY/WX    TMP DP  RH WIND       PRES   REMARKS
QUINCY         CLOUDY    72  71  97 SE3       29.85S FOG
GALESBURG*     PTCLDY    62  62  99 CALM      29.87R
MACOMB*        CLOUDY    66  66 100 CALM      29.88S FOG
JACKSONVILLE*  MOCLDY    73  72  98 CALM      29.88R
PITTSFIELD*    CLOUDY    72  70  93 CALM      29.88R FOG
$$

ILZ028>032-037-038-041>044-048-051>054-059>061-201300-
CENTRAL ILLINOIS

CITY           SKY/WX    TMP DP  RH WIND       PRES   REMARKS
PONTIAC        CLEAR     64  64 100 CALM      29.88R FOG
DECATUR        PTCLDY    70  68  93 S3        29.89S FOG
PEORIA         CLEAR     67  63  87 CALM      29.87F
6HR MIN TEMP:  65; 6HR MAX TEMP:  71;

LACON*         PTCLDY    64  63  96 CALM      29.85F FOG
LINCOLN*       FOG       65  64  97 CALM      29.86R VSB<1/4
SPRINGFIELD    MOCLDY    70  69  97 CALM      29.88S
6HR MIN TEMP:  67; 6HR MAX TEMP:  70;

TAYLORVILLE    MOCLDY    68  68 100 CALM      29.88R FOG
$$

ILZ033-039-045-046-055>057-062-063-201300-
EAST-CENTRAL ILLINOIS

CITY           SKY/WX    TMP DP  RH WIND       PRES   REMARKS
CHAMPAIGN      FOG       65  64  97 SW6       29.90R VSB 1/8
DANVILLE*      PTCLDY    63  63 100 CALM      29.86S FOG
RANTOUL*       CLEAR     64  62  91 SW5       29.90R FOG
MATTOON        CLEAR     72  70  93 SW6       29.90R FOG
PARIS*         CLEAR     67  67 100 CALM      29.90R FOG
$$

ILZ079-100>102-201300-
SOUTHWEST ILLINOIS

CITY           SKY/WX    TMP DP  RH WIND       PRES   REMARKS
ALTON          MOCLDY    70  70 100 CALM      29.91R
BELLEVILLE     CLEAR     70  70 100 CALM      29.90R
CAHOKIA*         N/A     71  70  96 CALM      29.89R
SPARTA*        PTCLDY    71  69  93 CALM      29.91R
$$

ILZ064>066-069>071-074>076-080>082-084>086-088>090-092>094-201300-
SOUTH-CENTRAL ILLINOIS

CITY           SKY/WX    TMP DP  RH WIND       PRES   REMARKS
CARBONDALE     PTCLDY    68  66  93 CALM      29.90R
6HR MIN TEMP:  66; 6HR MAX TEMP:  69;

CAIRO*           N/A     76  73  90 SW6       29.90S
MARION         MOCLDY    72  70  94 W3        29.91R
MT. VERNON     MOCLDY    68  64  88 CALM      29.91R
CENTRALIA*     CLOUDY    74  71  92 SW5       29.91R
SALEM*         CLOUDY    70  70  98 CALM      29.90R FOG
$$

ILZ067-068-072-073-078-083-087-091-201300-
SOUTHEAST ILLINOIS

CITY           SKY/WX    TMP DP  RH WIND       PRES   REMARKS
LAWRENCEVILLE  CLEAR     70  69  97 S5        29.90R FOG
FLORA*         CLEAR     67  67 100 CALM      29.90R FOG
FAIRFIELD*     PTCLDY    70  70 100 MISG      29.90R
HARRISBURG*    PTCLDY    67  67 100 CALM      29.91R
ROBINSON*      FOG       68  67  98 CALM      29.89F VSB 1/4
CARMI*         CLEAR     70  70 100 CALM      29.89R FOG
$$

ABBREVIATIONS USED IN REMARKS
   TC - TEMPERATURE IN CELSIUS
  WCI - WIND CHILL INDEX
   HX - HEAT INDEX
  VSB - VISIBILITY
$$



USA.gov is the U.S. government's official web portal to all federal, state and local government web resources and services.